Weather Roundup
Issued by NWS

Home | Current Version | Previous Version | Graphics & Text | Print | Product List | Glossary Off
Versions: 1 2 3 4 5 6 7 8 9 10 11 12 13 14 15 16 17 18 19 20 21 22 23 24 25 26 27 28 29 30 31 32 33 34 35 36 37 38 39 40 41 42 43 44 45 46 47 48 49 50

000
NZUS93 KARX 021859
HRRWXR

CURRENT HOURLY OBSERVATIONS ACROSS
MUCH OF THE UPPER MISSISSIPPI VALLEY
NATIONAL WEATHER SERVICE LA CROSSE WI
200 PM CDT SUN AUG 02 2015


...SOUTHEAST MINNESOTA...


CITY           SKY/WX    TMP DP  RH WIND       PRES   REMARKS
ROCHESTER      SUNNY     83  68  60 W20G33    29.70R
ROCHESTER/MAYO FAIR      85  62  46 W25G38    29.67R
WINONA         SUNNY     90  64  43 W16G23    29.62R HX  91
AUSTIN         SUNNY     88  64  45 W14       29.71R
ALBERT LEA     SUNNY     84  66  54 W10G20    29.72R
DODGE CENTER   SUNNY     82  64  54 W22       29.71R
PRESTON        SUNNY     86  68  55 W17G25    29.70R
OWATONNA       SUNNY     84  64  51 W17G28    29.71R
FARIBAULT      SUNNY     82  68  61 W14G24    29.71R
$$

...ELSEWHERE IN MINNESOTA...


CITY           SKY/WX    TMP DP  RH WIND       PRES   REMARKS
MINNEAPOLIS    MOSUNNY   84  68  58 NW21      29.68R
INTNL FALLS    MOSUNNY   71  47  42 W21G28    29.70R
DULUTH         PTSUNNY   74  57  55 NW15      29.68R
RED WING       MOSUNNY   86  64  48 NW12G21   29.64R
REDWOOD FALLS  SUNNY     85  62  46 NW14G25   29.76R
MANKATO        SUNNY     84  66  54 NW16G23   29.72R
WORTHINGTON    SUNNY     84  64  51 N16       29.82R
FAIRMONT       SUNNY     86  63  45 NW15G24   29.76R
$$

...SOUTHWEST WISCONSIN...


CITY           SKY/WX    TMP DP  RH WIND       PRES   REMARKS
LA CROSSE      SUNNY     92  69  47 SW17G29   29.59F HX  97
PRAIRIE DU CHI SUNNY     89  66  46 SW16G22   29.67F HX  91
BOSCOBEL       SUNNY     92  69  47 SW21      29.66F HX  97
LONE ROCK      NOT AVBL
PLATTEVILLE    SUNNY     86  69  56 SW18G25   29.72F HX  90
FORT MC COY    MOSUNNY   89  64  43 SW9G22    29.61F HX  90
VIROQUA        FAIR      87  69  55 SW15G21   29.67F HX  91
WIS DELLS      SUNNY     89  65  44 SW18G29   29.64F HX  90
$$

...ELSEWHERE IN WISCONSIN...


CITY           SKY/WX    TMP DP  RH WIND       PRES   REMARKS
MILWAUKEE      MOSUNNY   92  66  42 SW23G36   29.67F HX  94
MADISON        MOSUNNY   88  68  51 SW12G21   29.66F HX  91
GREEN BAY      MOSUNNY   89  69  51 SW15G25   29.52F HX  93
EAU CLAIRE     PTSUNNY   84  68  58 NW16G23   29.63R
BLACK RVR FLS  FAIR      91  65  43 SW10G21   29.57F HX  93
MEDFORD        CLOUDY    76  67  74 W9G17     29.63R
WAUSAU         PTSUNNY   82  67  60 VRB7      29.57F
WIS RAPIDS     PTSUNNY   92  64  39 SW21G30   29.58F HX  93
MARSHFIELD     CLOUDY    86  66  51 W18G25    29.60R
RICE LAKE      CLOUDY    75  66  74 W9        29.67R
$$

...NORTHEAST IOWA...


CITY           SKY/WX    TMP DP  RH WIND       PRES   REMARKS
DECORAH        SUNNY     86  72  62 SW14G21   29.68S HX  92
MASON CITY     SUNNY     87  73  62 W14       29.76R HX  94
CHARLES CITY   SUNNY     86  77  74 SW14G21   29.72S HX  97
OELWEIN        SUNNY     86  75  70 SW14G22   29.74S HX  95
$$

...ELSEWHERE IN IOWA...


CITY           SKY/WX    TMP DP  RH WIND       PRES   REMARKS
DES MOINES     MOSUNNY   93  72  50 W21G28    29.77F HX 101
IOWA CITY      SUNNY     89  75  63 SW10G23   29.78F HX  99
FORT DODGE     SUNNY     88  73  62 SW10G17   29.77F HX  96
$$

...NORTHERN ILLINOIS...


CITY           SKY/WX    TMP DP  RH WIND       PRES   REMARKS
CHICAGO-OHARE  MOSUNNY   90  66  45 SW20G33   29.75F HX  92
CHICAGO-MIDWAY MOSUNNY   94  64  37 SW21G30   29.76F HX  95
MOLINE         MOSUNNY   90  71  53 SW17      29.77F HX  96
ROCKFORD       MOSUNNY   89  68  49 SW21G29   29.75F HX  93
PEORIA         SUNNY     92  72  51 SW14G23   29.84F HX  99
$$

NOTE: "FAIR" INDICATES FEW OR NO CLOUDS BELOW 12,000 FEET WITH NO
SIGNIFICANT WEATHER AND/OR OBSTRUCTIONS TO VISIBILITY. WIND
SPEEDS ARE IN MILES-PER-HOUR.



USA.gov is the U.S. government's official web portal to all federal, state and local government web resources and services.